Find Starlink 31030

NORAD ID: 58542 Int'l Des: 2023-192 Owner: SPXS Country: US Constellation: starlink operational
LEOCIRCULAR

当前视图

正在加载3D地球...

About Starlink 31030

Starlink 31030 (NORAD 58542) is a starlink constellation satellite (v2 mini) launched Dec 8, 2023 by SPXS of US. It operates in LEO, CIRCULAR orbit with a mass of 730.00 kg.

关于 Starlink 31030

正在加载描述...

即将过境

Passes for default location (London). Set your location on the main map for personalized predictions.

高度历史

Loading altitude history...

两行轨道根数

1 58542U 23192M 26171.40917625 -.00001090 00000-0 -21156-4 0 9993
2 58542 53.1590 304.0999 0000877 88.5415 271.5688 15.34387966141731
Epoch: Jun 20, 2026 • Age: 21 hours

当前状态

高度 465.0 km
速度 7.64 km/s
星下点 35.62°N, 77.45°E
发射日期 Dec 8, 2023
运行时间 2.5 years
类型 internet

技术详情

分类 Payload
质量 730.00 kg
干质量 700.00 kg
总质量 730.00 kg
长度 0.30 m
直径 4.10 m
跨度 29.00 m
形状 Box + pan
制造商 SPXS
平台类型 Starlink V2M
阶段状态 In Orbit
所有者/国家 SPXS/US

Most Searched